Weather Roundup
Issued by NWS Springfield, MO

Home | Current Version | Previous Version | Text Only | Print | Product List | Glossary On
Versions: 1 2 3 4 5 6 7 8 9 10 11 12 13 14 15 16 17 18 19 20 21 22 23 24 25 26 27 28 29 30 31 32 33 34 35 36 37 38 39 40 41 42 43 44 45 46 47 48 49 50
000
NZUS99 KSGF 040810
HRRSGF

HOURLY WEATHER
NATIONAL WEATHER SERVICE SPRINGFIELD MO
300 AM CDT TUE AUG 04 2015

......SGF CWA......

CITY           SKY/WX    TMP DP  RH WIND       PRES   REMARKS
SPRINGFIELD    CLEAR     72  67  84 S5        29.97R
JOPLIN         CLEAR     73  65  75 CALM      29.95S
WEST PLAINS    CLEAR     71  67  87 CALM      29.98F
ROLLA          PTCLDY    72  70  93 S3        29.94F
OSAGE BEACH    CLEAR     72  68  88 CALM      29.94F
BRANSON        CLEAR     72  66  83 MISG      29.99S

......SURROUNDING SGF CWA......

CITY           SKY/WX    TMP DP  RH WIND       PRES   REMARKS
CHANUTE        PTCLDY    69  67  93 S6        29.94S
PARSONS        PTCLDY    67  67 100 CALM      29.94F
COFFEYVILLE    MOCLDY    71  68  90 CALM      29.93S
EMPORIA        MOCLDY    72  67  84 S8        29.92F
GROVE OK       CLEAR     70  70 100 CALM      29.95F
ROGERS AR      CLEAR     72  71  97 CALM      29.99S
SILOAM SPRINGS CLEAR     72  64  78 E5        29.96S
HARRISON AR    CLEAR     69  67  93 CALM      29.99S
NEAR YELLVILLE CLEAR     73  66  78 CALM      29.94S

......KANSAS AND MISSOURI......

CITY           SKY/WX    TMP DP  RH WIND       PRES   REMARKS
KANSAS CTY INT PTCLDY    72  66  81 SE8       29.93F
DOWNTOWN KC    PTCLDY    75  68  78 E7        29.92F
COLUMBIA       CLEAR     72  68  87 E8        29.95S
SEDALIA        CLEAR     74  69  85 CALM      29.95S
ST JOSEPH      PTCLDY    72  67  84 SE6       29.93S
ST LOUIS       CLOUDY    79  65  62 NE5       29.95S
SPIRIT OF STL  PTCLDY    74  73  97 CALM      29.93S
KIRKSVILLE     MOCLDY    67  62  84 NE6       29.97F
WICHITA        CLOUDY    74  67  78 S7        29.92F
TOPEKA         PTCLDY    74  71  91 CALM      29.92F
OLATHE         PTCLDY    73  69  87 CALM      29.93F

......TENNESSEE......

CITY           SKY/WX    TMP DP  RH WIND       PRES   REMARKS
MEMPHIS        MOCLDY    78  71  79 CALM      29.93S
NASHVILLE      CLEAR     74  69  85 S3        29.96S

......ARKANSAS.......

CITY           SKY/WX    TMP DP  RH WIND       PRES   REMARKS
FAYETTEVILLE   CLEAR     67  67 100 CALM      29.98S
FT SMITH       CLEAR     75  70  84 E5        29.93S
LITTLE ROCK    PTCLDY    77  70  79 CALM      29.93S

......OKLAHOMA.......

CITY           SKY/WX    TMP DP  RH WIND       PRES   REMARKS
TULSA          CLOUDY    79  69  71 E3        29.91R
PONCA CITY     CLOUDY    76  68  76 SE7       29.92S
MCALESTER      PTCLDY    79  65  62 E7        29.93S
OKLAHOMA CITY  CLOUDY    74  69  85 SE7       29.91F

......IOWA............

CITY           SKY/WX    TMP DP  RH WIND       PRES   REMARKS
DES MOINES     PTCLDY    69  59  70 CALM      29.94F
QUAD CITIES    CLEAR     61  56  83 CALM      29.94F

......ILLINOIS........

CITY           SKY/WX    TMP DP  RH WIND       PRES   REMARKS
QUINCY         MOCLDY    66  61  84 NE7       29.95F
CHICAGO        CLEAR     63  55  75 W3        29.91S



USA.gov is the U.S. government's official web portal to all federal, state and local government web resources and services.